Location: Newark
(51.3000°N, 178.2000°W)
Time: 02:12:55
(UTC+00:00)

ISS - Pass Details

Date: 11 May 2021
Orbit: 417 x 422 km, 51.6° (Epoch: 15 June)

Event Time Altitude Azimuth Distance (km) Brightness Sun altitude
Exits shadow 12:26:39 58° 93° (E) 499 -3.5 -20.2°
Drops below altitude 10° 12:29:28 10° 80° (E) 1,510 -0.7 -20.1°
Sets 12:31:34 0° 80° (E) 2,377 0.4 -20.1°
